Lexington Weather

Lexington, Massachusetts, USA

41°F
4/22/2024 8:05am 
  • Lexington Conditions: Clear
  • Temperature: 40.5°F / 4.7°CWarmer 3.1°F than last hour.
  • Dew Point: 28.0°FDecreased 1.1°Fsince last hour.
  • Relative Humidity: 61%Decreased 11.0% since last hour.
  • Wind: Calm, 10-min avg: Calm, gust: 5 mph
  • Barometer: 29.95 in Steady
  • Visibility: 10 miles
  • Rain Today: 0.00 in
  •   

Regional Weather Roundup
for Boston, MA

        
000
ASUS41 KBOX 201810
RWRBOX

REGIONAL WEATHER ROUNDUP
NATIONAL WEATHER SERVICE BOSTON/NORTON MA
200 PM EDT SAT APR 20 2024

NOTE:  "FAIR" INDICATES FEW OR NO CLOUDS BELOW 12,000 FEET WITH NO 
SIGNIFICANT WEATHER AND/OR OBSTRUCTIONS TO VISIBILITY.

MAZALL-201900-
EASTERN MASSACHUSETTS
  
CITY           SKY/WX    TMP DP  RH WIND       PRES   REMARKS
BOSTON         CLOUDY    56  50  80 SW7       29.85F                  
6HR MIN TEMP:  48; 6HR MAX TEMP:  56; 6HR PCP:  0.27;                

BEVERLY        CLOUDY    57  48  72 W3        29.84F                  
LAWRENCE       CLOUDY    58  46  64 SW9       29.84F                  
BEDFORD        CLOUDY    58  48  69 MISG      29.83F                  
NORWOOD        CLOUDY    57  50  77 SW7       29.85F                  
MARSHFIELD     CLOUDY    52  50  93 SW5       29.85F                  
PLYMOUTH       CLOUDY    52  49  89 SW5       29.85F                  
TAUNTON        CLOUDY    53  48  83 SW6       29.86F                  
NEW BEDFORD    CLOUDY    52  50  93 W5        29.85F                  
$$

MAZALL-201900-
CAPE COD AND THE ISLANDS
  
CITY           SKY/WX    TMP DP  RH WIND       PRES   REMARKS
FALMOUTH       DRIZZLE   48  48 100 SW6G13    29.88S                  
HYANNIS        LGT RAIN  49  48  97 SW6       29.84F FOG              
CHATHAM        LGT RAIN  49  48  97 W5        29.87F FOG              
PROVINCETOWN   LGT RAIN  49  49 100 SW9       29.87F                  
NANTUCKET      LGT RAIN  48  47  96 W10       29.87F                  
MARTHAS VNYRD  LGT RAIN  50  50 100 SW8       29.86F FOG              
$$
 
MAZALL-201900-
CENTRAL AND WESTERN MASSACHUSETTS
  
CITY           SKY/WX    TMP DP  RH WIND       PRES   REMARKS
WORCESTER      CLOUDY    57  40  52 W13       29.83F                  
6HR MIN TEMP:  46; 6HR MAX TEMP:  58; 6HR PCP:  0.03;                

FITCHBURG      CLOUDY    58  40  51 NW12G18   29.84F                  
ORANGE         CLOUDY    56  35  45 W12       29.85F                  
SPRINGFIELD    CLOUDY    59  40  50 NW12      29.82F                  
WESTFIELD      CLOUDY    59  40  49 NW14      29.85F                  
NORTH ADAMS    MOSUNNY   56  28  34 SW14G25   29.86F                  
PITTSFIELD     CLOUDY    55  33  43 W14G22    29.84F                  
$$
 
RIZALL-201900-
RHODE ISLAND
  
CITY           SKY/WX    TMP DP  RH WIND       PRES   REMARKS
PROVIDENCE     CLOUDY    53  51  93 W7        29.86F                  
6HR MIN TEMP:  46; 6HR MAX TEMP:  53; 6HR PCP:  0.27;                

NEWPORT        CLOUDY    51  49  92 W5        29.86F                  
BLOCK ISLAND   CLOUDY    48  48 100 W10       29.88F                  
SMITHFIELD     CLOUDY    55  52  89 VRB6      29.86F                  
WESTERLY       CLOUDY    50  48  93 SW6       29.88F                  
$$
 
CTZALL-201900-
CONNECTICUT
  
CITY           SKY/WX    TMP DP  RH WIND       PRES   REMARKS
BRADLEY INTL   CLOUDY    63  46  54 SW7       29.84F                  
6HR MIN TEMP:  49; 6HR MAX TEMP:  63; 6HR PCP:  0.01;                

HARTFORD       CLOUDY    60  49  66 SE8       29.85F                  
PLAINVILLE     CLOUDY    61  43  51 VRB6      29.84F                  
BRIDGEPORT     CLOUDY    58  50  75 SW12      29.87F                  
DANBURY        CLOUDY    62  43  49 MISG      29.87F                  
GROTON         CLOUDY    53  51  93 W7        29.87F                  
NEW HAVEN      CLOUDY    56  51  84 S9        29.87F HAZE             
CHESTER        MOSUNNY   61  48  63 CALM      29.87F                  
MERIDEN        CLOUDY    61  45  55 VRB3      29.86F                  
WILLIMANTIC    CLOUDY    57  47  69 VRB6      29.85F                  
OXFORD         CLOUDY    57  45  62 NW5       29.86F                  
$$

MEZ002-015-021-024-NHZ003-005-008-011-012-014-VTZ005-008-201900-
NORTHERN NEW ENGLAND
  
CITY           SKY/WX    TMP DP  RH WIND       PRES   REMARKS
PORTLAND ME    CLOUDY    55  47  74 VRB5      29.82F                  
6HR MIN TEMP:  45; 6HR MAX TEMP:  56; 6HR PCP:  0.08;                

BANGOR ME      LGT RAIN  47  45  93 SW5       29.83F FOG              
CONCORD NH     CLOUDY    55  46  71 S3        29.82F                  
MANCHESTER NH  CLOUDY    58  44  60 W6        29.82F                  
NASHUA NH      CLOUDY    58  43  57 W7        29.83F                  
PORTSMOUTH NH  PTSUNNY   59  46  62 W7        29.82F                  
JAFFREY NH     CLOUDY    55  37  50 W6        29.83F                  
KEENE NH       CLOUDY    55  34  45 W9        29.84F                  
BURLINGTON VT  PTSUNNY   57  25  29 VRB6      29.80F                  
MT. WASHINGTON FOG       23  23 100 W38G44      N/A  VSB 0   WCI   4  
$$

NYZ052-076-201900-
EASTERN NEW YORK
  
CITY           SKY/WX    TMP DP  RH WIND       PRES   REMARKS
ALBANY         PTSUNNY   61  30  31 SW3       29.87F                  
6HR MIN TEMP:  51; 6HR MAX TEMP:  63;                                

NEW YORK CITY  CLOUDY    64  45  49 W9        29.86F                  
6HR MIN TEMP:  50; 6HR MAX TEMP:  64; 6HR PCP: TRACE;                

$$
 
ANZALL-201900-
MARINE OBSERVATIONS
  
STATION/POSITION TIME  TEMP    WIND        PRES    VSBY  WAVE
                       AIR SEA DIR/SP/G                  HT/PER
                 (UTC) (F)     (DEG/KT/KT) (MB)    (MI)  (FT/S)
BOSTON BUOY      1750   47     210/  4/  4 1010.5F         1/10
BUZZARDS BAY     1700   45     230/ 10/ 11 1012.6F
NANTUCKET SOUND  1750   48 47  250/  8/ 10 1010.9F         1
MASS BAY-STELLWA 1604   46 46  180/  8/ 10 1011.6F  1 7/8  2/ 8
ISLE OF SHOALS   1700   48     190/  7/  8 1010.3F
S OF BLOCK IS    1756      45                N/A           4/ 8
$$

......................KEY.........................
  SKY/WX - SKY CONDITION/PRESENT WEATHER
  TMP    - TEMPERATURE IN FAHRENHEIT
  DWPT   - DEWPOINT IN FAHRENHEIT
  RH     - RELATIVE HUMIDITY IN PERCENT
  WIND   - DIRECTION AND SPEED IN MPH
  PRES   - MEAN SEA LEVEL PRESSURE IN INCHES OF HG
  WCI    - WIND CHILL INDEX
  VSB    - VISIBILITY IN MILES
  HX     - HEAT INDEX
  TC     - TEMPERATURE IN CELSIUS
  VRB    - VARIABLE WIND DIRECTION
  N/A    - NOT AVAILABLE
  
      

Other recent Regional Weather Roundups

Mon Apr 22, 7:10am EDT

Mon Apr 22, 6:10am EDT

Mon Apr 22, 5:10am EDT

Mon Apr 22, 4:10am EDT

Mon Apr 22, 3:10am EDT

Mon Apr 22, 2:10am EDT

Mon Apr 22, 1:10am EDT

Mon Apr 22, 12:10am EDT

Sun Apr 21, 11:10pm EDT

Sun Apr 21, 10:10pm EDT

Sun Apr 21, 9:10pm EDT

Sun Apr 21, 8:10pm EDT

Sun Apr 21, 7:10pm EDT

Sun Apr 21, 6:10pm EDT

Sun Apr 21, 5:10pm EDT

Sun Apr 21, 4:10pm EDT

Sun Apr 21, 3:10pm EDT

Sun Apr 21, 2:10pm EDT

Sun Apr 21, 1:10pm EDT

Sun Apr 21, 12:10pm EDT

Sun Apr 21, 11:10am EDT

Sun Apr 21, 10:10am EDT

Sun Apr 21, 9:10am EDT

Sun Apr 21, 8:10am EDT

Sun Apr 21, 7:10am EDT

Sun Apr 21, 6:10am EDT

Sun Apr 21, 5:10am EDT

Sun Apr 21, 4:10am EDT

Sun Apr 21, 3:10am EDT

Sun Apr 21, 2:10am EDT

Sun Apr 21, 1:10am EDT

Sun Apr 21, 12:10am EDT

Sat Apr 20, 11:10pm EDT

Sat Apr 20, 10:10pm EDT

Sat Apr 20, 9:10pm EDT

Sat Apr 20, 8:10pm EDT

Sat Apr 20, 7:10pm EDT

Sat Apr 20, 6:10pm EDT

Sat Apr 20, 5:10pm EDT

Sat Apr 20, 4:10pm EDT

Sat Apr 20, 3:10pm EDT

Sat Apr 20, 1:10pm EDT

Sat Apr 20, 12:10pm EDT

Sat Apr 20, 11:10am EDT

Sat Apr 20, 10:10am EDT

Sat Apr 20, 9:10am EDT

Sat Apr 20, 8:10am EDT

Sat Apr 20, 7:10am EDT

Sat Apr 20, 6:10am EDT

Sat Apr 20, 5:10am EDT

Sat Apr 20, 4:10am EDT

Sat Apr 20, 3:10am EDT

Sat Apr 20, 2:10am EDT

Sat Apr 20, 1:10am EDT

Sat Apr 20, 12:10am EDT

Fri Apr 19, 11:10pm EDT

Fri Apr 19, 10:10pm EDT

Fri Apr 19, 9:10pm EDT

Fri Apr 19, 8:10pm EDT

Fri Apr 19, 7:10pm EDT

Fri Apr 19, 6:10pm EDT

Fri Apr 19, 5:10pm EDT

Fri Apr 19, 4:10pm EDT

Fri Apr 19, 3:10pm EDT

Fri Apr 19, 2:10pm EDT

Fri Apr 19, 1:10pm EDT

Fri Apr 19, 12:10pm EDT

Fri Apr 19, 11:10am EDT

Fri Apr 19, 10:10am EDT

Fri Apr 19, 9:10am EDT

Fri Apr 19, 8:10am EDT

Fri Apr 19, 7:10am EDT

Fri Apr 19, 6:10am EDT

Fri Apr 19, 5:10am EDT

Fri Apr 19, 4:10am EDT

Fri Apr 19, 3:10am EDT

Fri Apr 19, 2:10am EDT

Fri Apr 19, 1:10am EDT

Fri Apr 19, 12:10am EDT

Thu Apr 18, 11:10pm EDT

Thu Apr 18, 10:10pm EDT

Thu Apr 18, 9:10pm EDT

Thu Apr 18, 8:10pm EDT

Thu Apr 18, 7:10pm EDT

Thu Apr 18, 6:10pm EDT

Thu Apr 18, 5:10pm EDT

Thu Apr 18, 4:10pm EDT

Thu Apr 18, 3:10pm EDT

Thu Apr 18, 2:10pm EDT

Thu Apr 18, 1:10pm EDT

Thu Apr 18, 12:10pm EDT

Thu Apr 18, 11:10am EDT

Thu Apr 18, 10:10am EDT

Thu Apr 18, 9:10am EDT

Thu Apr 18, 8:10am EDT

Thu Apr 18, 7:10am EDT

Thu Apr 18, 6:10am EDT

Thu Apr 18, 5:10am EDT

Thu Apr 18, 4:10am EDT

Thu Apr 18, 3:10am EDT

Thu Apr 18, 2:10am EDT

Thu Apr 18, 1:10am EDT

Thu Apr 18, 12:10am EDT

Wed Apr 17, 11:10pm EDT

Wed Apr 17, 10:10pm EDT

Wed Apr 17, 9:10pm EDT

Wed Apr 17, 8:10pm EDT

Wed Apr 17, 7:10pm EDT

Wed Apr 17, 6:10pm EDT

Wed Apr 17, 5:10pm EDT

Wed Apr 17, 4:10pm EDT

Wed Apr 17, 3:10pm EDT

Wed Apr 17, 2:10pm EDT

Wed Apr 17, 1:10pm EDT

Wed Apr 17, 12:10pm EDT

Wed Apr 17, 11:10am EDT

Wed Apr 17, 10:10am EDT

Wed Apr 17, 9:10am EDT

Wed Apr 17, 8:10am EDT

Wed Apr 17, 7:10am EDT

Wed Apr 17, 6:10am EDT

Wed Apr 17, 5:10am EDT

Wed Apr 17, 4:10am EDT

Wed Apr 17, 3:10am EDT

Wed Apr 17, 2:10am EDT

Wed Apr 17, 1:10am EDT

Wed Apr 17, 12:10am EDT

Tue Apr 16, 11:10pm EDT

Tue Apr 16, 10:10pm EDT

Tue Apr 16, 9:10pm EDT

Tue Apr 16, 8:10pm EDT

Tue Apr 16, 7:10pm EDT

Tue Apr 16, 6:10pm EDT

Tue Apr 16, 5:10pm EDT

Tue Apr 16, 4:10pm EDT

Tue Apr 16, 3:10pm EDT

Tue Apr 16, 2:10pm EDT

Tue Apr 16, 1:10pm EDT

Tue Apr 16, 12:10pm EDT

Tue Apr 16, 11:10am EDT

Tue Apr 16, 10:10am EDT

Tue Apr 16, 9:10am EDT

Tue Apr 16, 8:10am EDT

Tue Apr 16, 7:10am EDT

Tue Apr 16, 6:10am EDT

Tue Apr 16, 5:10am EDT

Tue Apr 16, 4:10am EDT

Tue Apr 16, 3:10am EDT

Tue Apr 16, 2:10am EDT

Tue Apr 16, 1:10am EDT

Tue Apr 16, 12:10am EDT

Mon Apr 15, 11:10pm EDT

Mon Apr 15, 10:10pm EDT

Mon Apr 15, 9:10pm EDT

Mon Apr 15, 8:10pm EDT

Mon Apr 15, 7:10pm EDT

Mon Apr 15, 6:10pm EDT

Mon Apr 15, 5:10pm EDT

Mon Apr 15, 4:10pm EDT

Mon Apr 15, 3:10pm EDT

Mon Apr 15, 2:10pm EDT

Mon Apr 15, 1:10pm EDT

Mon Apr 15, 12:10pm EDT

Mon Apr 15, 11:10am EDT

Mon Apr 15, 10:10am EDT

Mon Apr 15, 9:10am EDT

Mon Apr 15, 8:10am EDT